Date String (YYYY-MM-DD hh:mm:ss) UTC,Instrument flags,Ambient pressure (hPa),Sample flow (lpm),Bypass flow (lpm),Sample temperature (°C),Ambient temperature (°C),ASC tube jacket temperature (°C),LED temperature (°C),Box temperature (°C),Sample RH (%),Span deviation,Mass concentration (μg/m³),Mass concentration (μg/m³),Mass concentration (μg/m³)
DateTimeUTC,F1_M11,P_M11,Q1_M11,Q2_M11,T1_M11,T2_M11,T3_M11,T4_M11,T5_M11,U1_M11,ZSPAN_M11,X0_M11,X2_M11,X1_M11
2023-05-13 16:00:00,,0836.1,5.01,0.00,26.1,24.8,00.0,34.4,27.8,24.1,0000.0,0003.09,0002.14,0001.77
2023-05-13 16:01:00,,0836.1,5.00,0.00,26.1,24.8,00.0,34.4,27.8,23.9,0000.0,0002.96,0002.09,0001.73
2023-05-13 16:02:00,,0836.1,4.99,0.00,26.2,24.8,00.0,34.4,27.9,24.1,0000.0,0002.92,0002.05,0001.71
2023-05-13 16:03:00,,0836.1,5.00,0.00,26.2,24.9,00.0,34.4,27.9,24.5,0000.0,0002.92,0002.02,0001.68
2023-05-13 16:04:00,,0836.1,5.00,0.00,26.2,24.9,00.0,34.4,27.9,23.3,0000.0,0002.92,0002.02,0001.67
2023-05-13 16:05:00,,0836.1,5.00,0.00,26.2,24.9,00.0,34.5,27.9,23.4,0000.0,0002.91,0001.99,0001.64
2023-05-13 16:06:00,,0836.1,5.00,0.00,26.2,25.0,00.0,34.5,28.0,23.3,0000.0,0002.91,0001.98,0001.64
2023-05-13 16:07:00,,0836.1,5.00,0.00,26.3,25.0,00.0,34.5,28.0,23.6,0000.0,0002.79,0001.92,0001.60
2023-05-13 16:08:00,,0836.1,5.00,0.00,26.3,25.0,00.0,34.5,28.0,23.5,0000.0,0002.67,0001.88,0001.57
2023-05-13 16:09:00,,0836.1,5.01,0.00,26.3,25.0,00.0,34.5,28.0,23.2,0000.0,0002.74,0001.87,0001.54
2023-05-13 16:10:00,,0836.1,5.01,0.00,26.3,25.1,00.0,34.5,28.0,22.9,0000.0,0002.76,0001.88,0001.53
2023-05-13 16:11:00,,0836.1,5.00,0.00,26.3,25.1,00.0,34.5,28.0,22.8,0000.0,0002.63,0001.85,0001.52
2023-05-13 16:12:00,,0836.1,5.00,0.00,26.3,25.1,00.0,34.6,28.0,23.5,0000.0,0003.56,0001.84,0001.52
2023-05-13 16:13:00,,0836.1,5.00,0.00,26.4,25.1,00.0,34.6,28.1,22.8,0000.0,0004.18,0001.84,0001.52
2023-05-13 16:14:00,,0836.1,5.00,0.00,26.4,25.1,00.0,34.6,28.1,23.3,0000.0,0004.31,0001.85,0001.50
2023-05-13 16:15:00,,0836.1,5.00,0.00,26.4,25.1,00.0,34.6,28.1,23.2,0000.0,0004.50,0001.87,0001.47
2023-05-13 16:16:00,,0836.1,5.00,0.00,26.4,25.2,00.0,34.6,28.1,23.6,0000.0,0004.49,0001.86,0001.46
2023-05-13 16:17:00,,0836.1,4.99,0.00,26.4,25.2,00.0,34.6,28.1,23.2,0000.0,0004.47,0001.85,0001.44
2023-05-13 16:18:00,,0836.1,5.00,0.00,26.5,25.2,00.0,34.7,28.2,22.8,0000.0,0004.50,0001.86,0001.44
2023-05-13 16:19:00,,0836.1,5.01,0.00,26.5,25.2,00.0,34.7,28.2,22.7,0000.0,0004.47,0001.86,0001.45
2023-05-13 16:20:00,,0836.1,5.01,0.00,26.5,25.2,00.0,34.7,28.2,23.3,0000.0,0004.34,0001.84,0001.45
2023-05-13 16:21:00,,0836.1,4.99,0.00,26.5,25.3,00.0,34.7,28.2,23.9,0000.0,0004.26,0001.78,0001.43
2023-05-13 16:22:00,,0836.2,5.00,0.00,26.5,25.3,00.0,34.7,28.3,22.8,0000.0,0004.27,0001.76,0001.42
2023-05-13 16:23:00,,0836.2,5.00,0.00,26.5,25.3,00.0,34.7,28.3,23.3,0000.0,0003.35,0001.76,0001.39
2023-05-13 16:24:00,,0836.2,5.00,0.00,26.6,25.3,00.0,34.8,28.3,23.6,0000.0,0002.66,0001.72,0001.36
2023-05-13 16:25:00,,0836.2,5.00,0.00,26.6,25.4,00.0,34.8,28.3,23.3,0000.0,0002.54,0001.69,0001.35
2023-05-13 16:26:00,,0836.2,5.00,0.00,26.6,25.4,00.0,34.8,28.3,22.8,0000.0,0002.30,0001.62,0001.34
2023-05-13 16:27:00,,0836.2,5.00,0.00,26.6,25.4,00.0,34.8,28.3,22.4,0000.0,0002.28,0001.61,0001.35
2023-05-13 16:28:00,,0836.3,5.01,0.00,26.6,25.4,00.0,34.8,28.4,22.3,0000.0,0002.36,0001.62,0001.34
2023-05-13 16:29:00,,0836.2,5.00,0.00,26.7,25.4,00.0,34.9,28.4,22.0,0000.0,0002.30,0001.59,0001.33
2023-05-13 16:30:00,,0836.2,4.99,0.00,26.7,25.4,00.0,34.9,28.4,22.2,0000.0,0002.20,0001.53,0001.30
2023-05-13 16:31:00,,0836.2,4.99,0.00,26.7,25.5,00.0,34.9,28.4,23.0,0000.0,0002.14,0001.50,0001.29
2023-05-13 16:32:00,,0836.2,5.00,0.00,26.7,25.5,00.0,34.9,28.4,23.3,0000.0,0002.13,0001.51,0001.30
2023-05-13 16:33:00,,0836.2,5.00,0.00,26.7,25.5,00.0,34.9,28.4,23.6,0000.0,0002.12,0001.52,0001.29
2023-05-13 16:34:00,,0836.3,5.00,0.00,26.7,25.5,00.0,34.9,28.4,22.1,0000.0,0002.04,0001.51,0001.30
2023-05-13 16:35:00,,0836.2,5.00,0.00,26.7,25.5,00.0,35.0,28.4,22.0,0000.0,0003.41,0001.50,0001.30
2023-05-13 16:36:00,,0836.2,5.01,0.00,26.8,25.5,00.0,35.0,28.5,22.6,0000.0,0004.08,0001.47,0001.29
2023-05-13 16:37:00,,0836.3,5.00,0.00,26.8,25.5,00.0,35.0,28.5,23.0,0000.0,0004.30,0001.43,0001.28
2023-05-13 16:38:00,,0836.2,5.01,0.00,26.8,25.6,00.0,35.0,28.5,22.9,0000.0,0004.25,0001.42,0001.28
2023-05-13 16:39:00,,0836.3,5.00,0.00,26.8,25.6,00.0,35.0,28.5,22.0,0000.0,0004.14,0001.39,0001.26
2023-05-13 16:40:00,,0836.3,4.98,0.00,26.8,25.6,00.0,35.0,28.5,22.2,0000.0,0004.13,0001.38,0001.25
2023-05-13 16:41:00,,0836.4,5.00,0.00,26.9,25.6,00.0,35.1,28.6,22.5,0000.0,0004.16,0001.38,0001.23
2023-05-13 16:42:00,,0836.4,4.99,0.00,26.9,25.6,00.0,35.1,28.6,22.0,0000.0,0004.20,0001.39,0001.21
2023-05-13 16:43:00,,0836.4,5.00,0.00,26.9,25.7,00.0,35.1,28.6,21.6,0000.0,0004.21,0001.38,0001.19
2023-05-13 16:44:00,,0836.4,4.99,0.00,26.9,25.7,00.0,35.1,28.6,21.6,0000.0,0004.24,0001.36,0001.18
2023-05-13 16:45:00,,0836.4,5.00,0.00,26.9,25.7,00.0,35.1,28.6,21.2,0000.0,0004.20,0001.34,0001.17
2023-05-13 16:46:00,,0836.4,5.00,0.00,26.9,25.7,00.0,35.1,28.6,21.4,0000.0,0003.95,0001.30,0001.14
2023-05-13 16:47:00,,0836.3,5.00,0.00,26.9,25.7,00.0,35.2,28.6,21.3,0000.0,0002.45,0001.28,0001.11
2023-05-13 16:48:00,,0836.4,5.00,0.00,26.9,25.7,00.0,35.2,28.6,21.8,0000.0,0001.80,0001.25,0001.08
2023-05-13 16:49:00,,0836.4,5.01,0.00,27.0,25.7,00.0,35.2,28.6,22.0,0000.0,0001.67,0001.22,0001.05
2023-05-13 16:50:00,,0836.4,5.01,0.00,27.0,25.7,00.0,35.2,28.7,21.2,0000.0,0001.70,0001.21,0001.03
2023-05-13 16:51:00,,0836.4,5.01,0.00,27.0,25.7,00.0,35.2,28.7,21.5,0000.0,0001.90,0001.22,0001.02
2023-05-13 16:52:00,,0836.4,5.01,0.00,27.0,25.7,00.0,35.2,28.7,21.0,0000.0,0001.91,0001.21,0001.01
2023-05-13 16:53:00,,0836.4,5.00,0.00,27.0,25.8,00.0,35.2,28.7,21.0,0000.0,0001.90,0001.20,0001.02
2023-05-13 16:54:00,,0836.4,4.99,0.00,27.0,25.8,00.0,35.3,28.7,20.6,0000.0,0001.93,0001.21,0001.01
2023-05-13 16:55:00,,0836.5,4.99,0.00,27.1,25.8,00.0,35.3,28.8,20.5,0000.0,0001.85,0001.19,0000.99
2023-05-13 16:56:00,,0836.5,5.00,0.00,27.1,25.8,00.0,35.3,28.8,20.7,0000.0,0001.79,0001.16,0000.96
2023-05-13 16:57:00,,0836.5,4.99,0.00,27.1,25.8,00.0,35.3,28.8,20.7,0000.0,0001.74,0001.14,0000.95
2023-05-13 16:58:00,,0836.5,5.00,0.00,27.1,25.9,00.0,35.3,28.8,20.3,0000.0,0001.69,0001.12,0000.95
2023-05-13 16:59:00,,0836.5,5.00,0.00,27.1,25.9,00.0,35.3,28.8,20.5,0000.0,0001.71,0001.12,0000.94
